This is the latest recevied weather packets stored in our database for station/object N0HOT. If no packets are shown the sender has not sent any weather packets the latest 10 day(s).
| Time | Temp. | Humidity | Pressure | Rain* | Wind** | Luminosity | Snow |
|---|---|---|---|---|---|---|---|
| 1777388045 | 9.44° C | 57% | 1014.6 hPa | 0 mm | - | 571 W/m² | - |
| 1777387439 | 9.44° C | 59% | 1014.3 hPa | 0 mm | - | 321 W/m² | - |
| 1777387138 | 9.44° C | 60% | 1014.6 hPa | 0 mm | - | 208 W/m² | - |
| 1777386834 | 8.89° C | 61% | 1014.6 hPa | 0 mm | - | 435 W/m² | - |
| 1777385926 | 8.89° C | 63% | 1014.3 hPa | 0 mm | - | 425 W/m² | - |
| 1777385320 | 8.33° C | 65% | 1014.3 hPa | 0 mm | - | 83 W/m² | - |
| 1777385016 | 8.33° C | 66% | 1014.3 hPa | 0 mm | - | 278 W/m² | - |
| 1777383501 | 7.78° C | 67% | 1014.3 hPa | 0 mm | - | 108 W/m² | - |
| 1777382895 | 7.78° C | 68% | 1014.3 hPa | 0 mm | - | 242 W/m² | - |
| 1777381677 | 7.22° C | 70% | 1013.9 hPa | 0 mm | - | 101 W/m² | - |
| 1777381373 | 7.22° C | 70% | 1013.9 hPa | 0 mm | - | 75 W/m² | - |
| 1777380160 | 7.22° C | 70% | 1013.2 hPa | 0 mm | - | 52 W/m² | - |
| 1777379247 | 7.78° C | 70% | 1012.5 hPa | 0 mm | - | 45 W/m² | - |
| 1777378638 | 7.78° C | 69% | 1012.5 hPa | 0 mm | - | 34 W/m² | - |
| 1777378335 | 7.78° C | 69% | 1012.5 hPa | 0 mm | - | 38 W/m² | - |
| 1777378034 | 7.78° C | 70% | 1012.5 hPa | 0 mm | - | 33 W/m² | - |
| 1777377728 | 7.78° C | 69% | 1012.2 hPa | 0 mm | - | 33 W/m² | - |
| 1777377423 | 7.78° C | 70% | 1012.2 hPa | 0 mm | - | 30 W/m² | - |
| 1777377120 | 7.78° C | 70% | 1012.5 hPa | 0 mm | - | 23 W/m² | - |
| 1777375300 | 7.78° C | 70% | 1011.1 hPa | 0 mm | - | 3 W/m² | - |
| 1777374997 | 7.78° C | 70% | 1011.1 hPa | 0 mm | - | 1 W/m² | - |
| 1777374693 | 7.78° C | 70% | 1011.1 hPa | 0 mm | - | 0 W/m² | - |
| 1777374389 | 7.78° C | 70% | 1011.1 hPa | 0 mm | - | 0 W/m² | - |
| 1777373782 | 7.78° C | 70% | 1010.8 hPa | 0 mm | - | 0 W/m² | - |
| 1777373480 | 7.78° C | 71% | 1010.8 hPa | 0 mm | - | 0 W/m² | - |
* Rain latest hour (hover to see other rain measurements)
** Current wind speed in m/s (hover to see current wind gust speed)